Home > Weather > Long Beach > Past weeks

Flag for USA Past Weather in Long Beach, California, USA — Yesterday and Last 2 Weeks

Now
74 °F

Sunny.


Feels Like: 75 °F
Forecast: 68 / 82 °F
Wind: No wind

Location: Long Beach Airport

Current Time: Jul 25, 2016 at 9:02:17 AM

Latest Report: Jul 25, 2016 at 7:53 AM


Visibility: 7 mi

Pressure: 29.96 "Hg

Humidity: 76%

Dew Point: 66 °F

Location of Long BeachLocation

Past Weather in Long Beach — Graph

°F

Long Beach Temperature Yesterday

Maximum temperature yesterday: 81 °F (at 3:53 PM)
Minimum temperature yesterday: 69 °F (at 3:53 AM)
Average temperature yesterday: 74 °F

High & Low Weather Summary for the Past Weeks

 TemperatureHumidityPressure
High98 °F (Jul 22, 2:53 PM)93% (Jul 24, 3:53 AM)30.03 "Hg (Jul 24, 3:53 AM)
Low64 °F (Jul 15, 2:53 AM)19% (Jul 22, 2:53 PM)29.80 "Hg (Jul 23, 3:53 AM)
Average74 °F67%29.92 "Hg
* Reported Jul 10 7:53 AM — Jul 25 7:53 AM, Long Beach, Weather by CustomWeather, © 2016

Note: Actual official high and low records may vary slightly from our data, if they occured in-between our weather recording intervals... More about our weather records

Advertising

Long Beach Weather History for the Previous 24 Hours

Scroll right to see more
 ConditionsComfort  
Time TempWeatherWind HumidityBarometerVisibility
7:53 AM
Mon, Jul 25
74 °FSunny.No wind76%29.96 "Hg7 mi
6:53 AM71 °FClear.No wind84%29.93 "Hg7 mi
5:53 AM70 °FClear.No wind87%29.92 "Hg8 mi
4:53 AM70 °FClear.No wind87%29.91 "Hg8 mi
3:53 AM70 °FOvercast.No wind87%29.91 "Hg8 mi
2:53 AM70 °FOvercast.No wind87%29.91 "Hg8 mi
2:02 AM70 °FPassing clouds.3 mph87%29.92 "Hg8 mi
12:53 AM70 °FPassing clouds.No wind87%29.91 "Hg8 mi
11:53 PM
Sun, Jul 24
71 °FLow clouds.5 mph87%29.91 "Hg8 mi
10:53 PM71 °FPassing clouds.5 mph87%29.91 "Hg7 mi
9:53 PM71 °FClear.5 mph84%29.91 "Hg8 mi
8:53 PM72 °FSunny.5 mph81%29.89 "Hg9 mi
7:53 PM73 °FSunny.6 mph79%29.87 "Hg9 mi
6:53 PM75 °FSunny.7 mph74%29.87 "Hg9 mi
5:53 PM78 °FSunny.7 mph62%29.86 "Hg10 mi
4:53 PM79 °FSunny.6 mph60%29.87 "Hg10 mi
3:53 PM81 °FSunny.7 mph56%29.88 "Hg10 mi
2:53 PM80 °FSunny.8 mph60%29.91 "Hg10 mi
1:53 PM80 °FSunny.7 mph58%29.92 "Hg10 mi
12:53 PM79 °FSunny.8 mph65%29.93 "Hg10 mi
11:53 AM78 °FSunny.8 mph66%29.94 "Hg10 mi
10:53 AM75 °FSunny.8 mph74%29.93 "Hg8 mi
9:53 AM74 °FScattered clouds.9 mph76%29.92 "Hg9 mi
Weather by CustomWeather, © 2016

See weather overviewHow to use our weather pages